{"data":{"norad_id":66566,"epoch":"2026-05-24T17:47:44.275488Z","epoch_age_seconds":93277,"freshness":"FRESH","line1":"1 66566U 25268K   26144.74148467  .00015231  00000+0  56159-3 0  9990","line2":"2 66566  43.0009 277.3233 0001357 264.2371  95.8326 15.27595231 29593","mean_motion":15.27595231,"eccentricity":0.0001357,"inclination_deg":43.0009,"raan_deg":277.3233,"arg_perigee_deg":264.2371,"mean_anomaly_deg":95.8326,"bstar":0.00056159,"rev_number":2959,"period_min":94.265808820138,"perigee_km":482.07243256087,"apogee_km":483.93454608967,"semimajor_km":6861.1404893253,"source":"CELESTRAK","updated_at":"2026-05-25T13:38:21.279696Z"}}